[Date Prev][Date Next][Thread Prev][Thread Next] - [Date Index][Thread Index][Author Index]
2 Line ISS Keps 4-5
- Subject: [sarex] 2 Line ISS Keps 4-5
- From: "Dave Larsen PhD" <doc@xxxxxxxxxxx>
- Date: Wed, 5 Apr 2006 20:01:38 -0700
ISS
1 25544U 98067A 06095.80923729 .00015697 00000-0 10746-3 0 6738
2 25544 051.6426 199.9964 0009533 082.5544 008.0443 15.74923072421759
----
Via the sarex mailing list at AMSAT.ORG courtesy of AMSAT-NA.
To unsubscribe, send "unsubscribe sarex" to Majordomo@amsat.org
AMSAT Home